Location: East-View Observatory
(46.8144°N, 92.0597°W)
Time: 21:05:43
(UTC-06:00)

OTV 5 (USA 277) - Pass Details

Date: 27 October 2019
Orbit: 310 x 324 km, 54.5° (Epoch: 17 October)

Event Time Altitude Azimuth Distance (km) Brightness Sun altitude
Rises 19:25:05 0° 192° (SSW) 2,047 ? -15.0°
Reaches altitude 10° 19:27:42 10° 164° (SSE) 1,226 ? -15.5°
Enters shadow 19:27:43 10° 163° (SSE) 1,222 ? -15.5°
